Location: *
(40.4000°N, 15.1200°E)
Time: 19:42:33
(UTC+00:00)

Cosmos 1300 - Pass Details

Date: 09 April 2020
Orbit: 511 x 515 km, 82.5° (Epoch: 23 May)

Event Time Altitude Azimuth Distance (km) Brightness Sun altitude
Exits shadow 18:43:08 19° 144° (SE) 1,274 4.2 -13.6°
Maximum altitude 18:45:15 33° 92° (E) 879 3.3 -14.0°
Drops below altitude 10° 18:48:43 10° 27° (NNE) 1,748 5.4 -14.6°
Sets 18:50:59 0° 18° (NNE) 2,640 6.4 -15.0°
